Location: STAR School
(35.3054°N, 111.2976°W)
Time: 04:25:27
(UTC-07:00)

Envisat - Visible Passes

Search period start: 18 February 2019 00:00
Search period end: 28 February 2019 00:00
Orbit: 764 x 766 km, 98.2° (Epoch: 18 February)

Date Brightness Start Highest point End Pass type
(mag) Time Alt. Az. Time Alt. Az. Time Alt. Az.
18 Feb 4.4 19:45:13 10° SSW 19:49:56 40° W 19:54:42 10° NNW visible
19 Feb 2.9 19:08:05 10° SSE 19:13:09 86° ENE 19:18:15 10° N visible
20 Feb 3.5 18:31:57 10° SE 18:36:33 36° ENE 18:41:10 10° N visible
20 Feb 5.4 20:11:46 10° SW 20:15:37 22° W 20:19:29 10° NW visible
21 Feb 3.9 19:33:47 10° S 19:38:42 51° W 19:43:39 10° NNW visible
22 Feb 2.9 18:56:57 10° SSE 19:01:58 67° ENE 19:07:00 10° N visible
22 Feb 6.2 20:39:47 10° WSW 20:41:23 11° W 20:43:00 10° WNW visible
23 Feb 5.0 20:00:02 10° SSW 20:04:20 28° W 20:08:40 10° NW visible
24 Feb 6.6 06:34:56 10° ENE 06:36:52 12° E 06:38:47 10° ESE visible
24 Feb 3.4 19:22:27 10° S 19:27:29 67° W 19:32:32 10° NNW visible
25 Feb 3.2 18:45:55 10° SSE 18:50:48 51° ENE 18:55:43 10° N visible
25 Feb 5.9 20:27:11 10° SW 20:30:04 15° W 20:32:58 10° WNW visible
26 Feb 4.6 19:48:27 10° SSW 19:53:05 36° W 19:57:44 10° NNW visible
27 Feb 3.0 19:11:12 10° SSE 19:16:16 86° WSW 19:21:22 10° NNW visible
